Weather in Babanka

Ukraine / Cherkassi District     48°42′20″N   30°27′00″E
temp.,
°C
wind,
m/s
gust,
m/s
humid.,
%
clouds,
%
prec.,
mm/h
press.,
hPa
HPBL,
m
18 april, sun
sun1800:00+6nw2283100 0.0 101956
03:00+5wsw1185100 0.0 101913
06:00+4w228822 0.0 101911
09:00+7w227383 0.0 1019252
12:00+11wnw225677 0.0 10181321
15:00+13w335024 0.0 10171515
18:00+13wnw2250100 0.0 10171441
21:00+10wsw1161100 0.0 101711
19 april, mon
mon1900:00+9nne2272100 0.0 101822
03:00+8e1178100 0.0 101712
06:00+7ene2388100 0.0 101752
09:00+9e3379100 0.0 1017378
12:00+12ene336561 0.3 10161010
15:00+12ne556788 1.0 10151018
18:00+12ene346896 0.4 1014730
21:00+9ene387874 0.8 1014222
20 april, tue
tue2000:00+7ne4881100 0.0 1013194
03:00+6ne4986100 0.0 1010227
06:00+7nne61283100 0.0 1008390
09:00+9nne71276100 0.0 1008735
12:00+11nne91161100 0.0 10061318
15:00+11n81156100 0.0 10051755
18:00+10nnw81265100 0.1 10051433
21:00+7nw71374100 0.1 1007609
21 april, wed
wed2100:00+5nw6128095 0.0 1009591
03:00+4wnw5128168 0.0 1010542
06:00+3wnw51183100 0.0 1012423
09:00+6wnw61068100 0.0 1014843
12:00+10wnw5756100 0.0 10151548
15:00+11w465730 0.0 10151226
18:00+12sw356095 0.0 1016480
21:00+9ssw3370100 0.0 101729
22 april, thu
thu2200:00+8s3682100 0.3 1018103
03:00+7ssw348761 0.4 101875
06:00+6ssw348948 0.0 101950
09:00+11s347514 0.0 1020331
12:00+15s455435 0.1 10201352
15:00+17s444423 0.1 10202101
18:00+15s3456100 0.0 102096
21:00+13s345863 0.0 102071